[[{"header":{"parameterUnit":"m.s-1","parameterCategory":2,"la1":30.2991,"la2":30.254,"lo1":-89.0895,"lo2":-89.0444,"dy":0.0017,"dx":0.0017,"nx":28,"ny":28,"refTime":"2023-10-19T09:00:00:Z","depth":"0","parameterNumber":2,"parameterNumberName":"U-component_of_CURRENTS"},"data":[0,0,0,0,0,0,0,0,0,0,0,0,0,0,0,0,0,0,0,0,0,0,0,0,0,0,0,0,0,0,0,0,0,0,0,0,0,0,0,0,0,0,0,0,0,0,0,0,0,0,0,0,0,0,0,0,0,0,-0.2705,-0.2705,0,-0.266,-0.2659,-0.2659,-0.2588,-0.2587,-0.2587,-0.2586,-0.2482,-0.248,-0.2478,0,0,0,0,0,0,0,0,0,0,0,0,0,-0.2621,-0.2624,-0.2705,-0.2705,-0.2704,-0.2661,-0.2659,-0.2658,-0.2588,-0.2587,-0.2586,-0.2585,-0.2482,-0.248,-0.2477,0,0,0,0,0,0,0,0,0,0,0,0,0,-0.2621,-0.2624,-0.2705,-0.2668,-0.2664,-0.2661,-0.2659,-0.2658,-0.2589,-0.2587,-0.2586,-0.2585,-0.2483,-0.248,-0.2477,-0.2483,0,0,-0.2468,-0.2467,0,0,0,0,0,0,0,0,-0.2621,-0.2624,-0.2673,-0.267,-0.2667,-0.2633,-0.2592,-0.2598,-0.2589,-0.2612,-0.2586,-0.2584,-0.2531,-0.2524,-0.2512,-0.2478,-0.2474,-0.2468,-0.2466,-0.2465,-0.2464,0,0,0,0,0,0,0,-0.2622,-0.2625,-0.2682,-0.2674,-0.2669,-0.2617,-0.2616,-0.2592,-0.2574,-0.261,-0.2606,-0.2609,-0.2528,-0.2515,-0.2509,-0.2472,-0.2468,-0.2465,-0.2463,-0.2462,-0.2382,-0.2381,0,0,0,0,0,0,-0.2645,-0.2626,-0.2684,-0.2681,-0.2646,-0.2621,-0.2619,-0.2641,-0.2575,-0.2566,-0.2611,-0.2606,-0.2521,-0.2513,-0.2505,-0.2482,-0.2465,-0.2462,-0.246,-0.2382,-0.2382,-0.2381,0,0,0,0,0,0,-0.2643,-0.2651,-0.2685,-0.2654,-0.2656,-0.2625,-0.2649,-0.2641,-0.2623,-0.2577,-0.2566,-0.2601,-0.252,-0.2509,-0.2474,-0.2478,-0.246,-0.2458,-0.2382,-0.2382,-0.2382,-0.2453,0,0,0,0,0,0,-0.2641,-0.2651,-0.2663,-0.2657,-0.2659,-0.2688,-0.265,-0.2641,-0.263,-0.2623,-0.2566,-0.2555,-0.2518,-0.2478,-0.2471,-0.2474,-0.2455,-0.2383,-0.2382,-0.2382,-0.2451,-0.2455,-0.2459,0,0,0,0,0,-0.2639,-0.2656,-0.2664,-0.267,-0.2681,-0.269,-0.2685,-0.2653,-0.2631,-0.263,-0.2582,-0.2556,-0.2469,-0.2476,-0.2467,-0.2469,-0.2383,-0.2382,-0.2382,-0.2449,-0.2454,-0.2458,0,0,0,0,0,0,-0.2588,-0.2651,-0.2659,-0.2685,-0.2694,-0.268,-0.2669,-0.2659,-0.2622,-0.2607,-0.2557,-0.2544,-0.2513,-0.248,-0.249,-0.2441,-0.242,-0.2417,-0.2474,-0.2479,-0.2482,-0.2444,-0.2453,0,0,0,0,0,-0.2598,-0.2648,-0.2675,-0.2691,-0.27,-0.2689,-0.2684,-0.2674,-0.2648,-0.263,-0.2593,-0.2545,-0.2506,-0.2484,-0.2447,-0.2427,-0.2396,-0.2419,-0.2423,-0.2426,-0.2387,-0.2367,-0.2365,-0.2379,-0.2379,-0.2379,0,0,-0.2574,-0.2621,-0.2639,-0.2687,-0.2685,-0.2688,-0.268,-0.2682,-0.2666,-0.2626,-0.2583,-0.2561,-0.2503,-0.2475,-0.2458,-0.2447,-0.2412,-0.2425,-0.2429,-0.2387,-0.2366,-0.2365,-0.2363,-0.2378,-0.2379,-0.2379,0,0,-0.2546,-0.2603,-0.2624,-0.2651,-0.2679,-0.2684,-0.2691,-0.2691,-0.2672,-0.2653,-0.261,-0.2581,-0.2535,-0.2488,-0.2458,-0.2457,-0.2435,-0.2461,-0.2448,-0.2431,-0.243,-0.2428,-0.242,-0.2417,-0.2462,-0.2462,-0.2462,0,-0.2499,-0.2541,-0.2621,-0.2642,-0.2641,-0.2685,-0.2668,-0.2675,-0.2658,-0.2631,-0.2643,-0.2554,-0.2529,-0.246,-0.2465,-0.2464,-0.2458,-0.2445,-0.2437,-0.2435,-0.2432,-0.2423,-0.2419,-0.2465,-0.2465,-0.2464,-0.2464,0,-0.248,-0.2511,-0.2521,-0.2576,-0.2599,-0.2594,-0.2631,-0.2642,-0.2641,-0.2626,-0.2579,-0.2553,-0.2489,-0.25,-0.2483,-0.2445,-0.2452,-0.2453,-0.2433,-0.2435,-0.2426,-0.242,-0.247,-0.2469,-0.2468,-0.2467,0,0,-0.2355,-0.2476,-0.2471,-0.2482,-0.2556,-0.256,-0.2578,-0.257,-0.2549,-0.256,-0.2509,-0.2474,-0.2468,-0.2431,-0.2424,-0.2416,-0.2424,-0.2433,-0.2431,-0.2434,-0.24,-0.2198,-0.2173,-0.2443,-0.2442,-0.2441,-0.2416,0,-0.2281,-0.2301,-0.2385,-0.2376,-0.2382,-0.2456,-0.2459,-0.2479,-0.2496,-0.248,-0.2466,-0.2425,-0.2441,-0.2427,-0.2421,-0.2428,-0.2406,-0.243,-0.2385,-0.2382,-0.221,-0.2156,-0.2022,-0.1968,-0.241,-0.2409,-0.2408,0,-0.2223,-0.2243,-0.2223,-0.2281,-0.2282,-0.2282,-0.2297,-0.2308,-0.2335,-0.2348,-0.2336,-0.2354,-0.234,-0.2364,-0.2349,-0.2376,-0.237,-0.2378,-0.2377,-0.2141,-0.2165,-0.2027,-0.1941,-0.1951,-0.2399,-0.2399,-0.24,0,-0.2098,-0.2132,-0.2103,-0.2121,-0.219,-0.2173,-0.219,-0.2234,-0.2247,-0.2259,-0.2298,-0.2271,-0.2297,-0.228,-0.2299,-0.2343,-0.2279,-0.2345,-0.2141,-0.2131,-0.197,-0.1943,-0.1878,-0.2286,-0.2286,-0.2286,-0.2286,0,-0.2007,-0.1986,-0.2032,-0.202,-0.1957,-0.2053,-0.1999,-0.2042,-0.2105,-0.2141,-0.2203,-0.2239,-0.2288,-0.2285,-0.2272,-0.2157,-0.2249,-0.209,-0.2082,-0.1991,-0.1968,-0.1929,-0.1982,-0.2285,-0.2285,-0.2285,-0.2285,0,-0.1897,-0.1939,-0.1899,-0.1912,-0.1911,-0.1857,-0.19,-0.1913,-0.1988,-0.2058,-0.2083,-0.2223,-0.2199,-0.218,-0.2161,-0.2115,-0.1971,-0.1949,-0.1829,-0.18,-0.1599,-0.166,-0.1556,-0.1518,-0.174,-0.1734,-0.1729,0,-0.185,-0.1824,-0.1786,-0.1753,-0.1746,-0.17,-0.172,-0.1813,-0.1888,-0.2053,-0.2123,-0.2134,-0.2069,-0.1916,-0.1809,-0.1643,-0.174,-0.1488,-0.1503,-0.1503,-0.1571,-0.167,-0.1657,-0.137,-0.1363,-0.1357,-0.1352,0,-0.1717,-0.1696,-0.1633,-0.1595,-0.1581,-0.1585,-0.1641,-0.1688,-0.187,-0.1902,-0.195,-0.1874,-0.1748,-0.1455,-0.1265,-0.1245,-0.1439,-0.1354,-0.1403,-0.1263,-0.1321,-0.1308,-0.1506,-0.1299,-0.1304,-0.1308,-0.1311,-0.1313,-0.1583,-0.1489,-0.1439,-0.1398,-0.1418,-0.1498,-0.1455,-0.1568,-0.1601,-0.1631,-0.167,-0.1389,-0.113,-0.0786,-0.0837,-0.0837,-0.098,-0.0848,-0.0928,-0.1034,-0.0943,-0.098,-0.0717,-0.0719,-0.0721,-0.0722,-0.0724,0,-0.1402,-0.1341,-0.1284,-0.1245,-0.127,-0.1342,-0.144,-0.1389,-0.1356,-0.1267,-0.1099,-0.0569,-0.0344,-0.0318,-0.032,-0.0398,-0.0554,-0.0503,-0.0676,-0.0689,-0.0747,-0.067,-0.0323,-0.0323,-0.0323,-0.0323,-0.0323,-0.0323,-0.1298,-0.1177,-0.1163,-0.113,-0.1136,-0.1119,-0.114,-0.1054,-0.0933,-0.0542,-0.0171,0.0098,0.0155,-0.0026,-0.0254,-0.0338,-0.0464,-0.042,-0.0534,-0.0647,-0.069,-0.0731,-0.067,-0.0329,-0.0329,-0.0443,-0.0444,-0.0445]},{"header":{"parameterUnit":"m.s-1","parameterCategory":2,"la1":30.2991,"la2":30.254,"lo1":-89.0895,"lo2":-89.0444,"dy":0.0017,"dx":0.0017,"nx":28,"ny":28,"refTime":"2023-10-19T09:00:00:Z","depth":"0","parameterNumber":3,"parameterNumberName":"V-component_of_CURRENTS"},"data":[0,0,0,0,0,0,0,0,0,0,0,0,0,0,0,0,0,0,0,0,0,0,0,0,0,0,0,0,0,0,0,0,0,0,0,0,0,0,0,0,0,0,0,0,0,0,0,0,0,0,0,0,0,0,0,0,0,0,-0.0237,-0.0236,0,-0.0191,-0.019,-0.019,-0.0123,-0.0122,-0.0121,-0.012,-0.0003,-0.0001,0.0002,0,0,0,0,0,0,0,0,0,0,0,0,0,-0.0291,-0.029,-0.0237,-0.0236,-0.0236,-0.0191,-0.019,-0.0189,-0.0123,-0.0122,-0.0121,-0.012,-0.0003,-0.0001,0.0002,0,0,0,0,0,0,0,0,0,0,0,0,0,-0.0256,-0.0289,-0.0237,-0.0199,-0.0195,-0.0191,-0.019,-0.0189,-0.0123,-0.0122,-0.0121,-0.0119,-0.0004,-0.0001,0.0002,-0.0006,0,0,0.0013,0.0014,0,0,0,0,0,0,0,0,-0.0258,-0.0254,-0.0205,-0.0202,-0.0198,-0.0163,-0.0166,-0.0125,-0.0124,-0.0148,-0.012,-0.0118,-0.0052,-0.0045,-0.0037,-0.0,0.0005,0.0013,0.0015,0.0016,0.0017,0,0,0,0,0,0,0,-0.0261,-0.0256,-0.0216,-0.0205,-0.02,-0.0193,-0.0186,-0.0158,-0.0106,-0.0146,-0.0142,-0.0141,-0.0049,-0.0041,-0.0034,0.0006,0.0013,0.0016,0.0018,0.0019,0.0055,0.0054,0,0,0,0,0,0,-0.0271,-0.0258,-0.0218,-0.0215,-0.0228,-0.0193,-0.0185,-0.0174,-0.0108,-0.0097,-0.0142,-0.0138,-0.0047,-0.0038,-0.0029,-0.0031,0.0016,0.0019,0.0021,0.0056,0.0055,0.0053,0,0,0,0,0,0,-0.0272,-0.0267,-0.022,-0.0238,-0.0232,-0.0194,-0.0182,-0.0174,-0.0163,-0.0106,-0.0093,-0.0139,-0.0046,-0.0034,-0.0014,-0.0026,0.0021,0.0024,0.0057,0.0056,0.0054,-0.0037,0,0,0,0,0,0,-0.0274,-0.0268,-0.0266,-0.0238,-0.0231,-0.0225,-0.0183,-0.0174,-0.0166,-0.016,-0.0099,-0.0087,-0.0044,-0.002,-0.0011,-0.002,0.0027,0.0059,0.0056,0.0055,-0.0032,-0.0041,-0.0049,0,0,0,0,0,-0.0276,-0.0285,-0.0266,-0.0261,-0.0228,-0.0226,-0.0222,-0.0189,-0.0167,-0.0172,-0.0133,-0.0089,-0.0025,-0.0018,-0.0007,-0.0016,0.0059,0.0057,0.0055,-0.0029,-0.0039,-0.0049,0,0,0,0,0,0,-0.0321,-0.0278,-0.0257,-0.0255,-0.0244,-0.0216,-0.0223,-0.0198,-0.0173,-0.0165,-0.0105,-0.0091,-0.0071,-0.004,-0.0034,-0.0013,0.0025,0.0025,-0.0042,-0.0051,-0.0059,-0.0119,0.0029,0,0,0,0,0,-0.0328,-0.0315,-0.0285,-0.0288,-0.0285,-0.0255,-0.0251,-0.0228,-0.0203,-0.019,-0.0149,-0.0109,-0.0075,-0.0061,-0.0023,-0.0023,0.0013,-0.0021,-0.0029,-0.0037,-0.0079,-0.0082,-0.0095,0.0046,0.0046,0.0046,0,0,-0.035,-0.0325,-0.032,-0.0296,-0.0285,-0.0308,-0.0249,-0.025,-0.0269,-0.0182,-0.0192,-0.0131,-0.0079,-0.0068,-0.0058,-0.0045,-0.0036,-0.004,-0.0046,-0.0085,-0.0086,-0.01,-0.0112,0.0044,0.0044,0.0045,0,0,-0.0411,-0.0366,-0.0387,-0.0382,-0.0368,-0.0347,-0.0352,-0.0325,-0.0309,-0.0302,-0.0245,-0.0207,-0.0156,-0.0131,-0.0108,-0.0147,-0.0073,-0.012,-0.0219,-0.0221,-0.0233,-0.0244,-0.0125,-0.0125,-0.0134,-0.0134,-0.0134,0,-0.0445,-0.0461,-0.0399,-0.043,-0.0448,-0.0374,-0.0428,-0.0402,-0.0371,-0.0383,-0.0316,-0.027,-0.0193,-0.0218,-0.0208,-0.0166,-0.0124,-0.0182,-0.0234,-0.0244,-0.0254,-0.013,-0.0129,-0.0139,-0.0138,-0.0138,-0.0137,0,-0.0521,-0.0546,-0.0565,-0.0573,-0.0581,-0.0608,-0.0574,-0.0572,-0.0527,-0.0505,-0.05,-0.0404,-0.039,-0.0336,-0.0271,-0.0309,-0.0233,-0.0235,-0.0214,-0.0274,-0.0138,-0.0135,-0.0145,-0.0144,-0.0142,-0.0141,0,0,-0.057,-0.0613,-0.0621,-0.0677,-0.066,-0.0689,-0.0711,-0.0732,-0.0779,-0.0698,-0.075,-0.0648,-0.0595,-0.0569,-0.0485,-0.0463,-0.0414,-0.0382,-0.038,-0.0271,-0.0339,-0.0172,-0.015,-0.0439,-0.0441,-0.0443,-0.0183,0,-0.0658,-0.0764,-0.0752,-0.087,-0.0928,-0.089,-0.0944,-0.0945,-0.0903,-0.092,-0.0819,-0.0819,-0.0687,-0.0674,-0.0633,-0.0483,-0.0427,-0.0479,-0.0294,-0.0286,-0.0139,-0.0151,-0.0078,0.0165,-0.018,-0.0179,-0.0179,0,-0.0728,-0.08,-0.0929,-0.1056,-0.1083,-0.1144,-0.1221,-0.1248,-0.1232,-0.1206,-0.1173,-0.1081,-0.1009,-0.0894,-0.0701,-0.0744,-0.0559,-0.0425,-0.0413,-0.0244,-0.0118,0.0152,0.0184,0.0257,-0.0173,-0.0174,-0.0174,0,-0.0787,-0.0926,-0.1042,-0.1075,-0.1191,-0.1268,-0.1324,-0.1346,-0.1386,-0.1383,-0.1375,-0.1308,-0.1212,-0.1068,-0.07,-0.0739,-0.0436,-0.0462,-0.0129,-0.0109,-0.0006,0.0025,0.0097,-0.0354,-0.0354,-0.0355,-0.0356,0,-0.0862,-0.0963,-0.1099,-0.1161,-0.1359,-0.1385,-0.1545,-0.1581,-0.1607,-0.162,-0.1531,-0.1453,-0.1257,-0.1015,-0.0765,-0.0376,-0.0478,-0.0145,-0.0062,-0.002,0.0005,0.0105,0.0118,-0.0345,-0.0347,-0.0349,-0.0351,0,-0.0895,-0.0966,-0.1141,-0.1318,-0.1386,-0.1526,-0.1687,-0.1772,-0.1777,-0.1769,-0.1765,-0.1559,-0.1213,-0.0924,-0.0583,-0.0398,0.0013,0.0077,0.0193,0.0281,0.0557,0.0563,0.0743,0.0867,0.0387,0.0392,0.0396,0,-0.0919,-0.0997,-0.1248,-0.1377,-0.1472,-0.1662,-0.1778,-0.1859,-0.1889,-0.1759,-0.1721,-0.1412,-0.1045,-0.0466,-0.0152,0.0279,0.0351,0.0561,0.0456,0.0584,0.065,0.0632,0.0719,0.0615,0.0621,0.0626,0.063,0,-0.0976,-0.1061,-0.1212,-0.1468,-0.1644,-0.1813,-0.194,-0.1971,-0.1955,-0.1853,-0.152,-0.1205,-0.0632,-0.0067,0.0423,0.0627,0.061,0.0671,0.0719,0.076,0.0821,0.0979,0.0518,0.0672,0.0668,0.0665,0.0662,0.0661,-0.1016,-0.1154,-0.1338,-0.1577,-0.1756,-0.1856,-0.1893,-0.1882,-0.1801,-0.1467,-0.1257,-0.0639,-0.0051,0.0671,0.0824,0.1089,0.103,0.1169,0.1162,0.113,0.1225,0.0924,0.1203,0.1202,0.1201,0.12,0.1199,0,-0.1055,-0.1199,-0.1424,-0.1669,-0.1795,-0.1886,-0.1912,-0.1798,-0.1528,-0.1153,-0.071,0.0158,0.0736,0.1117,0.1497,0.1579,0.1505,0.1609,0.153,0.1594,0.1262,0.1243,0.1642,0.1642,0.1642,0.1641,0.1641,0.1641,-0.1091,-0.1275,-0.1395,-0.1611,-0.1739,-0.1743,-0.1687,-0.1427,-0.1116,-0.0362,0.0243,0.0702,0.1262,0.1606,0.1849,0.1854,0.192,0.1924,0.1982,0.1654,0.1608,0.1564,0.1545,0.2,0.2001,0.2313,0.2316,0.2318]}],[{"header":{"parameterUnit":"m.s-1","parameterCategory":2,"la1":30.2991,"la2":30.254,"lo1":-89.0895,"lo2":-89.0444,"dy":0.0017,"dx":0.0017,"nx":28,"ny":28,"refTime":"2023-10-19T09:00:00:Z","depth":"2","parameterNumber":2,"parameterNumberName":"U-component_of_CURRENTS"},"data":[0,0,0,0,0,0,0,0,0,0,0,0,0,0,0,0,0,0,0,0,0,0,0,0,0,0,0,0,0,0,0,0,0,0,0,0,0,0,0,0,0,0,0,0,0,0,0,0,0,0,0,0,0,0,0,0,0,0,-0.2269,-0.2271,0,-0.2397,-0.2398,-0.24,-0.2455,-0.2454,-0.2454,-0.2454,-0.2551,-0.2554,-0.2557,0,0,0,0,0,0,0,0,0,0,0,0,0,-0.2178,-0.2178,-0.2269,-0.2271,-0.2272,-0.2397,-0.2398,-0.24,-0.2455,-0.2454,-0.2454,-0.2454,-0.255,-0.2554,-0.2557,0,0,0,0,0,0,0,0,0,0,0,0,0,-0.2253,-0.2179,-0.2269,-0.2314,-0.2319,-0.2396,-0.2398,-0.2401,-0.2455,-0.2454,-0.2454,-0.2454,-0.2549,-0.2553,-0.2557,-0.2592,0,0,-0.257,-0.2572,0,0,0,0,0,0,0,0,-0.2248,-0.2256,-0.2306,-0.2311,-0.2317,-0.2409,-0.2402,-0.2463,-0.2455,-0.2404,-0.2454,-0.2454,-0.2501,-0.2509,-0.2535,-0.2596,-0.26,-0.2571,-0.2573,-0.2575,-0.2576,0,0,0,0,0,0,0,-0.2243,-0.2252,-0.232,-0.2308,-0.2314,-0.2364,-0.2373,-0.2414,-0.2453,-0.2408,-0.2413,-0.2426,-0.2504,-0.2531,-0.2538,-0.2602,-0.2571,-0.2575,-0.2577,-0.2579,-0.271,-0.2711,0,0,0,0,0,0,-0.2221,-0.2246,-0.2316,-0.2324,-0.228,-0.2365,-0.2376,-0.238,-0.2453,-0.2464,-0.2426,-0.2428,-0.2524,-0.2533,-0.2541,-0.2561,-0.2575,-0.2579,-0.2582,-0.2709,-0.271,-0.2711,0,0,0,0,0,0,-0.2218,-0.2226,-0.2311,-0.2288,-0.2302,-0.2366,-0.2372,-0.2383,-0.2413,-0.2467,-0.2477,-0.2444,-0.2524,-0.2535,-0.2589,-0.2566,-0.2581,-0.2585,-0.2708,-0.271,-0.2711,-0.2616,0,0,0,0,0,0,-0.2215,-0.2224,-0.2226,-0.2286,-0.2303,-0.2341,-0.2372,-0.2386,-0.2422,-0.2425,-0.2486,-0.2495,-0.2524,-0.2582,-0.2593,-0.2572,-0.2588,-0.2707,-0.2709,-0.2711,-0.2618,-0.2614,-0.2611,0,0,0,0,0,-0.2211,-0.2222,-0.2225,-0.2234,-0.2301,-0.2341,-0.2353,-0.2399,-0.2423,-0.2427,-0.2485,-0.2493,-0.26,-0.2587,-0.2599,-0.2578,-0.2706,-0.2708,-0.271,-0.262,-0.2615,-0.2611,0,0,0,0,0,0,-0.22,-0.223,-0.2235,-0.2258,-0.2284,-0.2349,-0.2372,-0.24,-0.2452,-0.2464,-0.2513,-0.2525,-0.2562,-0.2598,-0.2582,-0.2627,-0.2652,-0.2657,-0.2579,-0.2575,-0.2571,-0.2567,-0.2592,0,0,0,0,0,-0.2191,-0.2195,-0.2233,-0.2248,-0.2262,-0.2315,-0.2342,-0.2369,-0.2421,-0.2444,-0.2484,-0.2538,-0.2582,-0.26,-0.2646,-0.2674,-0.2679,-0.2671,-0.2667,-0.2663,-0.2672,-0.2652,-0.2646,-0.2718,-0.2718,-0.2718,0,0,-0.2192,-0.2209,-0.2213,-0.2243,-0.2276,-0.2306,-0.2331,-0.2368,-0.2395,-0.2447,-0.2497,-0.2529,-0.2592,-0.262,-0.2638,-0.2644,-0.2645,-0.2666,-0.2662,-0.2673,-0.2654,-0.2646,-0.2639,-0.272,-0.272,-0.2719,0,0,-0.2196,-0.2207,-0.2212,-0.2234,-0.2271,-0.2303,-0.2309,-0.2363,-0.2385,-0.2434,-0.2476,-0.2492,-0.2574,-0.2589,-0.2616,-0.2625,-0.2631,-0.2645,-0.2611,-0.259,-0.2583,-0.2577,-0.2556,-0.2549,-0.2635,-0.2634,-0.2634,0,-0.2195,-0.2205,-0.2221,-0.224,-0.2265,-0.2299,-0.2322,-0.2356,-0.2417,-0.2434,-0.244,-0.2531,-0.2554,-0.2588,-0.2583,-0.2608,-0.261,-0.2611,-0.2579,-0.2574,-0.2569,-0.255,-0.2542,-0.263,-0.2631,-0.2631,-0.2631,0,-0.2204,-0.2218,-0.2229,-0.2254,-0.2282,-0.2305,-0.2347,-0.237,-0.2398,-0.2426,-0.2457,-0.2485,-0.2534,-0.2529,-0.2559,-0.2542,-0.2559,-0.2574,-0.2575,-0.2554,-0.2537,-0.2531,-0.2624,-0.2626,-0.2627,-0.2628,0,0,-0.2168,-0.2223,-0.222,-0.2237,-0.2289,-0.2311,-0.2352,-0.2388,-0.2418,-0.2437,-0.2464,-0.2486,-0.2488,-0.2519,-0.2533,-0.2501,-0.2438,-0.2519,-0.252,-0.2471,-0.2396,-0.2277,-0.226,-0.2445,-0.2444,-0.2443,-0.2389,0,-0.2161,-0.2193,-0.2225,-0.2259,-0.2282,-0.2327,-0.2365,-0.2404,-0.2435,-0.2467,-0.2466,-0.2502,-0.2491,-0.2502,-0.2466,-0.2473,-0.2424,-0.2452,-0.245,-0.245,-0.2322,-0.2249,-0.207,-0.1996,-0.2384,-0.2383,-0.2382,0,-0.2142,-0.2168,-0.2198,-0.226,-0.2275,-0.2303,-0.2359,-0.2398,-0.2449,-0.2475,-0.2491,-0.2516,-0.2498,-0.2481,-0.2435,-0.246,-0.2417,-0.2395,-0.2393,-0.2315,-0.232,-0.2087,-0.1971,-0.2373,-0.2374,-0.2374,-0.2375,0,-0.2084,-0.2143,-0.2163,-0.2185,-0.2263,-0.2283,-0.2324,-0.2387,-0.2432,-0.2475,-0.2522,-0.2506,-0.2532,-0.2463,-0.2423,-0.2432,-0.2363,-0.237,-0.2216,-0.2209,-0.2072,-0.2053,-0.2302,-0.2302,-0.2302,-0.2302,-0.2302,0,-0.205,-0.2062,-0.2137,-0.2144,-0.2173,-0.2246,-0.2282,-0.2331,-0.2416,-0.2478,-0.2515,-0.2546,-0.2532,-0.2508,-0.2426,-0.2298,-0.2359,-0.2189,-0.2173,-0.2034,-0.2013,-0.237,-0.2379,-0.23,-0.2301,-0.2301,-0.2301,0,-0.1972,-0.2022,-0.2048,-0.2123,-0.2142,-0.2159,-0.2257,-0.2304,-0.2398,-0.2484,-0.2508,-0.2588,-0.2519,-0.2476,-0.2384,-0.2314,-0.2191,-0.2128,-0.1964,-0.1926,-0.205,-0.2055,-0.1935,-0.193,-0.1926,-0.1922,-0.1919,0,-0.1934,-0.1939,-0.2005,-0.202,-0.2047,-0.2092,-0.2139,-0.2257,-0.2358,-0.249,-0.2558,-0.2535,-0.2454,-0.228,-0.2122,-0.1925,-0.2046,-0.1725,-0.1679,-0.2008,-0.2006,-0.2018,-0.2028,-0.1468,-0.1462,-0.1457,-0.1453,0,-0.1858,-0.1882,-0.1907,-0.1927,-0.1968,-0.2018,-0.2127,-0.2191,-0.2362,-0.2377,-0.2375,-0.228,-0.2175,-0.1882,-0.1726,-0.1596,-0.1733,-0.1609,-0.1987,-0.1585,-0.1562,-0.1563,-0.1589,-0.1406,-0.1411,-0.1414,-0.1417,-0.1419,-0.1791,-0.1793,-0.1821,-0.1826,-0.1875,-0.192,-0.1905,-0.2021,-0.2026,-0.203,-0.211,-0.189,-0.1934,-0.1482,-0.1345,-0.1216,-0.1333,-0.1294,-0.1313,-0.1337,-0.1287,-0.1257,-0.1036,-0.1038,-0.1041,-0.1042,-0.1044,0,-0.1712,-0.1715,-0.1721,-0.173,-0.1715,-0.1791,-0.1882,-0.1835,-0.173,-0.1681,-0.1555,-0.1353,-0.1163,-0.1148,-0.085,-0.0804,-0.0814,-0.0781,-0.0825,-0.087,-0.091,-0.0843,-0.0472,-0.0471,-0.0469,-0.0468,0,0,-0.1667,-0.1639,-0.1635,-0.155,-0.1558,-0.1532,-0.1525,-0.1401,-0.1332,-0.1041,-0.088,-0.0999,-0.1066,-0.0801,-0.0735,-0.0533,-0.0682,-0.047,-0.0921,-0.1011,-0.105,-0.1187,-0.113,0,0,0,0,0]},{"header":{"parameterUnit":"m.s-1","parameterCategory":2,"la1":30.2991,"la2":30.254,"lo1":-89.0895,"lo2":-89.0444,"dy":0.0017,"dx":0.0017,"nx":28,"ny":28,"refTime":"2023-10-19T09:00:00:Z","depth":"2","parameterNumber":3,"parameterNumberName":"V-component_of_CURRENTS"},"data":[0,0,0,0,0,0,0,0,0,0,0,0,0,0,0,0,0,0,0,0,0,0,0,0,0,0,0,0,0,0,0,0,0,0,0,0,0,0,0,0,0,0,0,0,0,0,0,0,0,0,0,0,0,0,0,0,0,0,-0.0368,-0.0367,0,-0.0274,-0.0273,-0.0272,-0.0209,-0.0209,-0.0208,-0.0208,-0.0065,-0.0062,-0.0058,0,0,0,0,0,0,0,0,0,0,0,0,0,-0.0404,-0.0404,-0.0368,-0.0367,-0.0366,-0.0274,-0.0273,-0.0271,-0.0209,-0.0209,-0.0208,-0.0208,-0.0066,-0.0062,-0.0058,0,0,0,0,0,0,0,0,0,0,0,0,0,-0.0357,-0.0404,-0.0368,-0.0324,-0.0319,-0.0274,-0.0273,-0.0271,-0.0209,-0.0209,-0.0208,-0.0208,-0.0067,-0.0062,-0.0057,-0.0036,0,0,-0.0041,-0.0039,0,0,0,0,0,0,0,0,-0.036,-0.0356,-0.0332,-0.0327,-0.0322,-0.0253,-0.0233,-0.019,-0.0209,-0.0251,-0.0208,-0.0207,-0.0124,-0.0114,-0.0098,-0.003,-0.0023,-0.0041,-0.0038,-0.0036,-0.0034,0,0,0,0,0,0,0,-0.0363,-0.0359,-0.033,-0.0331,-0.0324,-0.0278,-0.0272,-0.0224,-0.019,-0.0247,-0.0242,-0.0233,-0.0121,-0.0103,-0.0094,-0.0021,-0.0041,-0.0036,-0.0033,-0.0031,0.0124,0.0125,0,0,0,0,0,0,-0.0381,-0.0363,-0.0333,-0.0327,-0.034,-0.0278,-0.0271,-0.0275,-0.0192,-0.0179,-0.0233,-0.023,-0.0112,-0.01,-0.0088,-0.0041,-0.0036,-0.0031,-0.0028,0.0123,0.0124,0.0125,0,0,0,0,0,0,-0.0383,-0.038,-0.0337,-0.0342,-0.0333,-0.0279,-0.0284,-0.0274,-0.0256,-0.0182,-0.0168,-0.0227,-0.0111,-0.0096,-0.0049,-0.0036,-0.0028,-0.0024,0.0122,0.0123,0.0125,0.0043,0,0,0,0,0,0,-0.0384,-0.0382,-0.0387,-0.0344,-0.0334,-0.0319,-0.0284,-0.0272,-0.0251,-0.0246,-0.0171,-0.0158,-0.0109,-0.0057,-0.0044,-0.0028,-0.002,0.012,0.0122,0.0124,0.0044,0.0041,0.0039,0,0,0,0,0,-0.0386,-0.0402,-0.0389,-0.0384,-0.0345,-0.0319,-0.031,-0.0268,-0.0252,-0.0249,-0.0197,-0.016,-0.0034,-0.0053,-0.0037,-0.002,0.012,0.0122,0.0124,0.0045,0.0042,0.0039,0,0,0,0,0,0,-0.0417,-0.0396,-0.038,-0.0387,-0.0358,-0.0309,-0.03,-0.0275,-0.0233,-0.0226,-0.0159,-0.0141,-0.0093,-0.0044,-0.0065,0.0035,0.0054,0.0059,-0.0011,-0.0014,-0.0016,-0.0018,-0.0015,0,0,0,0,0,-0.0429,-0.0437,-0.0402,-0.0407,-0.0396,-0.035,-0.0333,-0.0308,-0.0265,-0.0247,-0.0195,-0.013,-0.007,-0.0036,0.0019,0.0065,0.0111,0.0094,0.0091,0.0088,0.0101,0.0172,0.0176,0.0133,0.0133,0.0133,0,0,-0.0442,-0.043,-0.0434,-0.0413,-0.0386,-0.037,-0.0339,-0.0321,-0.0299,-0.0237,-0.0195,-0.0145,-0.0062,-0.0009,0.0019,0.0033,0.0121,0.0091,0.0087,0.0102,0.0175,0.0179,0.0183,0.0134,0.0134,0.0134,0,0,-0.0468,-0.0462,-0.0472,-0.0453,-0.0422,-0.0391,-0.0392,-0.0348,-0.032,-0.0282,-0.0224,-0.017,-0.0088,-0.0021,0.0024,0.0042,0.0097,0.0064,0.0056,0.0124,0.0128,0.0132,0.0167,0.0175,0.007,0.007,0.007,0,-0.0481,-0.049,-0.0469,-0.0466,-0.0451,-0.0406,-0.0403,-0.0366,-0.0311,-0.0282,-0.0277,-0.0143,-0.0087,0.0002,0.001,0.0036,0.0072,0.0052,0.0118,0.0123,0.0128,0.0165,0.0174,0.0066,0.0066,0.0067,0.0067,0,-0.0508,-0.0509,-0.0513,-0.0495,-0.0477,-0.047,-0.0421,-0.0395,-0.0361,-0.0316,-0.0242,-0.0169,-0.0082,-0.0057,-0.0018,0.0059,0.0069,0.0093,0.0115,0.0127,0.0165,0.0177,0.0061,0.0062,0.0063,0.0064,0,0,-0.0552,-0.0536,-0.0538,-0.0533,-0.0494,-0.0485,-0.0446,-0.0395,-0.036,-0.0304,-0.0248,-0.0156,-0.0115,-0.0059,-0.0001,0.0059,0.0111,0.0088,0.0093,0.0105,0.024,0.0259,0.0274,0.0142,0.0144,0.0146,0.024,0,-0.0576,-0.059,-0.0569,-0.0566,-0.0565,-0.0514,-0.0482,-0.0427,-0.0369,-0.0303,-0.0213,-0.0143,-0.0113,-0.0076,-0.0009,0.0094,0.0143,0.0082,0.0245,0.025,0.0251,0.029,0.0266,0.035,0.0251,0.0253,0.0255,0,-0.0608,-0.0611,-0.0626,-0.0601,-0.0595,-0.0582,-0.0523,-0.0489,-0.0379,-0.0332,-0.0242,-0.0167,-0.0056,-0.0044,0.0126,0.0085,0.0155,0.022,0.0226,0.0288,0.0293,0.0332,0.0375,0.0275,0.0273,0.0272,0.027,0,-0.0659,-0.065,-0.0668,-0.0661,-0.0624,-0.0613,-0.0587,-0.0499,-0.0465,-0.0346,-0.0302,-0.0162,-0.0094,0.0029,0.0168,0.015,0.0346,0.0341,0.0419,0.042,0.0458,0.0459,0.045,0.045,0.045,0.045,0.0449,0,-0.0698,-0.0707,-0.0695,-0.0705,-0.0702,-0.0665,-0.0644,-0.0584,-0.0503,-0.0454,-0.0327,-0.024,-0.0073,0.0063,0.0178,0.0345,0.0358,0.0433,0.046,0.0426,0.0423,0.0412,0.0406,0.0453,0.0452,0.0452,0.0451,0,-0.0744,-0.0743,-0.075,-0.0732,-0.0729,-0.0725,-0.0694,-0.0674,-0.0592,-0.052,-0.0487,-0.0296,-0.0088,0.008,0.0294,0.0351,0.0512,0.0558,0.0492,0.051,0.0527,0.0516,0.0655,0.0657,0.0658,0.0659,0.066,0,-0.0766,-0.0785,-0.0782,-0.0789,-0.0781,-0.0779,-0.078,-0.072,-0.0696,-0.0541,-0.0504,-0.0286,-0.0081,0.024,0.0404,0.0615,0.0605,0.0648,0.0619,0.0544,0.0556,0.0542,0.053,0.0622,0.0623,0.0623,0.0624,0,-0.0794,-0.0798,-0.08,-0.0828,-0.0837,-0.0855,-0.0849,-0.0842,-0.0768,-0.0669,-0.0484,-0.0296,0.0039,0.0312,0.0551,0.0652,0.0618,0.0665,0.0643,0.057,0.0521,0.0529,0.0517,0.0629,0.0628,0.0628,0.0628,0.0627,-0.0802,-0.0803,-0.0823,-0.0846,-0.0879,-0.0926,-0.0926,-0.0907,-0.0845,-0.0661,-0.0468,-0.0147,0.0039,0.046,0.0606,0.0719,0.0723,0.0709,0.0705,0.0701,0.0676,0.0632,0.0755,0.0755,0.0755,0.0756,0.0756,0,-0.0793,-0.0813,-0.0844,-0.0883,-0.0953,-0.0962,-0.0968,-0.0944,-0.0869,-0.0594,-0.035,-0.0084,0.0239,0.047,0.0666,0.0746,0.0712,0.0744,0.0684,0.068,0.0676,0.0647,0.072,0.072,0.072,0.072,0,0,-0.0786,-0.0808,-0.0831,-0.094,-0.0996,-0.1074,-0.1075,-0.099,-0.0796,-0.0515,-0.0243,0.0087,0.0327,0.0419,0.0544,0.0673,0.0647,0.0666,0.0687,0.0601,0.0595,0.0652,0.0603,0,0,0,0,0]}],[{"header":{"parameterUnit":"m.s-1","parameterCategory":2,"la1":30.2991,"la2":30.254,"lo1":-89.0895,"lo2":-89.0444,"dy":0.0017,"dx":0.0017,"nx":28,"ny":28,"refTime":"2023-10-19T09:00:00:Z","depth":"4","parameterNumber":2,"parameterNumberName":"U-component_of_CURRENTS"},"data":[0,0,0,0,0,0,0,0,0,0,0,0,0,0,0,0,0,0,0,0,0,0,0,0,0,0,0,0,0,0,0,0,0,0,0,0,0,0,0,0,0,0,0,0,0,0,0,0,0,0,0,0,0,0,0,0,0,0,-0.1642,-0.1643,0,-0.1697,-0.1698,-0.1698,-0.172,-0.172,-0.172,-0.172,-0.1782,-0.1783,-0.1785,0,0,0,0,0,0,0,0,0,0,0,0,0,-0.1563,-0.1564,-0.1642,-0.1643,-0.1644,-0.1697,-0.1698,-0.1698,-0.172,-0.172,-0.172,-0.172,-0.1781,-0.1783,-0.1785,0,0,0,0,0,0,0,0,0,0,0,0,0,-0.1603,-0.1565,-0.1642,-0.1663,-0.1665,-0.1697,-0.1698,-0.1698,-0.172,-0.172,-0.172,-0.172,-0.1781,-0.1783,-0.1785,-0.1797,0,0,-0.1792,-0.1793,0,0,0,0,0,0,0,0,-0.1601,-0.1606,-0.1659,-0.1661,-0.1664,-0.1704,-0.1693,-0.1733,-0.172,-0.1696,-0.172,-0.172,-0.1758,-0.1762,-0.1768,-0.18,-0.1803,-0.1793,-0.1794,-0.1795,-0.1796,0,0,0,0,0,0,0,-0.1598,-0.1604,-0.1661,-0.166,-0.1663,-0.1673,-0.1678,-0.17,-0.1724,-0.1698,-0.1701,-0.1711,-0.1759,-0.1766,-0.177,-0.1803,-0.1792,-0.1795,-0.1796,-0.1797,-0.1882,-0.1883,0,0,0,0,0,0,-0.1596,-0.1601,-0.1659,-0.1663,-0.1635,-0.1674,-0.168,-0.1689,-0.1723,-0.1729,-0.1711,-0.1712,-0.1762,-0.1767,-0.1772,-0.1835,-0.1795,-0.1797,-0.1798,-0.1881,-0.1882,-0.1883,0,0,0,0,0,0,-0.1594,-0.1601,-0.1657,-0.1635,-0.1644,-0.1676,-0.1685,-0.169,-0.1722,-0.1733,-0.1739,-0.1741,-0.1762,-0.1769,-0.181,-0.1836,-0.1798,-0.18,-0.188,-0.1881,-0.1882,-0.193,0,0,0,0,0,0,-0.1592,-0.16,-0.1619,-0.1635,-0.1645,-0.1687,-0.1686,-0.1691,-0.1728,-0.1731,-0.1761,-0.1765,-0.1763,-0.1806,-0.1812,-0.1838,-0.1802,-0.1879,-0.1881,-0.1882,-0.1928,-0.1933,-0.1938,0,0,0,0,0,-0.1589,-0.161,-0.1619,-0.1627,-0.1665,-0.1688,-0.1694,-0.1715,-0.173,-0.1745,-0.1768,-0.1766,-0.182,-0.181,-0.1816,-0.1843,-0.1878,-0.188,-0.1882,-0.1925,-0.1932,-0.1938,0,0,0,0,0,0,-0.1591,-0.1615,-0.1625,-0.1655,-0.1676,-0.1693,-0.1719,-0.1733,-0.1764,-0.1776,-0.1783,-0.1789,-0.1826,-0.1832,-0.1819,-0.187,-0.1847,-0.185,-0.1877,-0.1884,-0.1889,-0.1893,-0.1804,0,0,0,0,0,-0.1599,-0.162,-0.1642,-0.1668,-0.1683,-0.1707,-0.1727,-0.174,-0.1765,-0.178,-0.1801,-0.1822,-0.1835,-0.1859,-0.1865,-0.1909,-0.1889,-0.1928,-0.1933,-0.1937,-0.1944,-0.1933,-0.1938,-0.1889,-0.1889,-0.1889,0,0,-0.1609,-0.1626,-0.164,-0.1671,-0.1692,-0.1722,-0.1719,-0.1756,-0.1787,-0.1782,-0.1839,-0.1839,-0.1846,-0.188,-0.1899,-0.1896,-0.1938,-0.1939,-0.1943,-0.1948,-0.1936,-0.1941,-0.1945,-0.189,-0.189,-0.189,0,0,-0.1629,-0.1655,-0.1676,-0.1699,-0.1736,-0.1751,-0.1768,-0.18,-0.1824,-0.187,-0.1865,-0.1886,-0.1925,-0.1928,-0.1935,-0.1978,-0.1955,-0.1983,-0.2029,-0.2019,-0.2023,-0.2026,-0.1997,-0.1997,-0.1999,-0.1999,-0.1999,0,-0.1644,-0.1669,-0.1687,-0.1715,-0.1742,-0.1769,-0.18,-0.183,-0.1873,-0.1892,-0.1896,-0.1937,-0.1945,-0.1976,-0.1989,-0.199,-0.1973,-0.2007,-0.2026,-0.2028,-0.2031,-0.2,-0.1999,-0.2001,-0.2001,-0.2001,-0.2,0,-0.1667,-0.1703,-0.1722,-0.1764,-0.1795,-0.1828,-0.1867,-0.1904,-0.1938,-0.1957,-0.1997,-0.2003,-0.2025,-0.2031,-0.2031,-0.2055,-0.2032,-0.2021,-0.201,-0.2038,-0.2004,-0.2002,-0.2005,-0.2004,-0.2003,-0.2003,0,0,-0.1648,-0.1724,-0.1731,-0.1762,-0.1824,-0.1846,-0.191,-0.1956,-0.1992,-0.2032,-0.2068,-0.2095,-0.2094,-0.2101,-0.2097,-0.2102,-0.2102,-0.2082,-0.2081,-0.2052,-0.2067,-0.1912,-0.1895,-0.2097,-0.2097,-0.2097,-0.2032,0,-0.1659,-0.1718,-0.1754,-0.1818,-0.1851,-0.1902,-0.1952,-0.2002,-0.2041,-0.2082,-0.2099,-0.2124,-0.2123,-0.2131,-0.214,-0.2107,-0.2103,-0.212,-0.2045,-0.2042,-0.19,-0.189,-0.2099,-0.2031,-0.203,-0.203,-0.203,0,-0.1656,-0.1698,-0.1762,-0.1842,-0.1862,-0.1908,-0.1984,-0.203,-0.2093,-0.2121,-0.2156,-0.2163,-0.2185,-0.2172,-0.2148,-0.216,-0.2123,-0.2096,-0.2092,-0.1931,-0.1884,-0.1998,-0.2027,-0.2027,-0.2027,-0.2028,-0.2028,0,-0.1608,-0.1698,-0.175,-0.1779,-0.1875,-0.1918,-0.1968,-0.204,-0.2069,-0.2139,-0.2152,-0.2189,-0.2185,-0.2172,-0.2127,-0.2141,-0.2077,-0.2082,-0.1906,-0.1894,-0.2035,-0.2032,-0.2056,-0.2056,-0.2056,-0.2056,-0.2056,0,-0.1582,-0.1626,-0.1739,-0.1763,-0.1822,-0.19,-0.1952,-0.2012,-0.2074,-0.2073,-0.2159,-0.2145,-0.2184,-0.2154,-0.2127,-0.1995,-0.2072,-0.19,-0.1863,-0.2055,-0.2055,-0.2033,-0.2031,-0.2054,-0.2054,-0.2055,-0.2055,0,-0.1512,-0.1589,-0.1654,-0.1767,-0.1801,-0.1841,-0.1926,-0.1951,-0.2028,-0.2027,-0.2043,-0.2103,-0.2054,-0.2063,-0.2019,-0.195,-0.1871,-0.1806,-0.1995,-0.1972,-0.17,-0.1702,-0.1604,-0.1598,-0.1593,-0.1588,-0.1585,0,-0.1477,-0.1508,-0.1636,-0.1667,-0.172,-0.1787,-0.1818,-0.1912,-0.1907,-0.1961,-0.1925,-0.1936,-0.1945,-0.1766,-0.1808,-0.1733,-0.1712,-0.1667,-0.1702,-0.1678,-0.1653,-0.1663,-0.1671,-0.1576,-0.1575,-0.1574,-0.1572,0,-0.1407,-0.1472,-0.1526,-0.1585,-0.1634,-0.1658,-0.1694,-0.1671,-0.1732,-0.1832,-0.1748,-0.1722,-0.166,-0.1641,-0.1587,-0.1544,-0.1701,-0.1613,-0.1624,-0.1657,-0.1643,-0.1626,-0.164,-0.1554,-0.1557,-0.1559,-0.156,0,-0.1356,-0.1378,-0.1451,-0.1483,-0.1529,-0.1482,-0.1528,-0.1496,-0.1503,-0.1558,-0.1523,-0.1551,-0.1617,-0.1537,-0.149,-0.1432,-0.1415,-0.1376,-0.1399,-0.142,-0.139,-0.1348,-0.1121,0,0,0,0,0,-0.1298,-0.1304,-0.1334,-0.1341,-0.1369,-0.1378,-0.1414,-0.1451,-0.1503,-0.1393,-0.1446,-0.1384,-0.1325,-0.1363,-0.126,-0.14,-0.142,-0.1274,-0.1387,-0.1455,-0.1476,-0.1459,0,0,0,0,0,0,-0.1256,-0.1296,-0.1296,-0.1195,-0.1164,-0.1156,-0.1168,-0.1214,-0.1148,-0.1232,-0.1212,-0.1292,-0.1265,-0.1355,-0.1232,-0.1236,-0.1272,-0.1309,-0.1304,-0.1443,-0.1462,-0.1479,-0.1469,0,0,0,0,0]},{"header":{"parameterUnit":"m.s-1","parameterCategory":2,"la1":30.2991,"la2":30.254,"lo1":-89.0895,"lo2":-89.0444,"dy":0.0017,"dx":0.0017,"nx":28,"ny":28,"refTime":"2023-10-19T09:00:00:Z","depth":"4","parameterNumber":3,"parameterNumberName":"V-component_of_CURRENTS"},"data":[0,0,0,0,0,0,0,0,0,0,0,0,0,0,0,0,0,0,0,0,0,0,0,0,0,0,0,0,0,0,0,0,0,0,0,0,0,0,0,0,0,0,0,0,0,0,0,0,0,0,0,0,0,0,0,0,0,0,-0.0285,-0.0284,0,-0.0235,-0.0234,-0.0234,-0.0206,-0.0206,-0.0206,-0.0206,-0.0143,-0.0141,-0.014,0,0,0,0,0,0,0,0,0,0,0,0,0,-0.0299,-0.0299,-0.0285,-0.0284,-0.0283,-0.0235,-0.0234,-0.0234,-0.0206,-0.0206,-0.0206,-0.0206,-0.0143,-0.0141,-0.014,0,0,0,0,0,0,0,0,0,0,0,0,0,-0.0276,-0.0299,-0.0285,-0.0263,-0.0261,-0.0235,-0.0234,-0.0234,-0.0206,-0.0206,-0.0206,-0.0206,-0.0144,-0.0142,-0.0139,-0.013,0,0,-0.0132,-0.0131,0,0,0,0,0,0,0,0,-0.0278,-0.0276,-0.0267,-0.0265,-0.0262,-0.0226,-0.0216,-0.0198,-0.0207,-0.0228,-0.0206,-0.0206,-0.0169,-0.0165,-0.0157,-0.0127,-0.0124,-0.0132,-0.0131,-0.013,-0.0129,0,0,0,0,0,0,0,-0.0279,-0.0278,-0.0266,-0.0266,-0.0263,-0.0236,-0.0233,-0.0212,-0.0201,-0.0226,-0.0224,-0.0217,-0.0167,-0.0159,-0.0155,-0.0123,-0.0132,-0.013,-0.0129,-0.0128,-0.0076,-0.0076,0,0,0,0,0,0,-0.0287,-0.028,-0.0267,-0.0264,-0.0268,-0.0236,-0.0233,-0.0238,-0.0201,-0.0195,-0.0217,-0.0216,-0.0163,-0.0158,-0.0153,-0.0128,-0.013,-0.0128,-0.0126,-0.0076,-0.0076,-0.0076,0,0,0,0,0,0,-0.0288,-0.0287,-0.0269,-0.0269,-0.0265,-0.0237,-0.0242,-0.0237,-0.0233,-0.0194,-0.0188,-0.0218,-0.0163,-0.0156,-0.014,-0.0126,-0.0127,-0.0124,-0.0076,-0.0076,-0.0076,-0.0086,0,0,0,0,0,0,-0.0289,-0.0288,-0.0295,-0.027,-0.0265,-0.0263,-0.0242,-0.0237,-0.0228,-0.0226,-0.0193,-0.0187,-0.0162,-0.0143,-0.0137,-0.0123,-0.0123,-0.0076,-0.0076,-0.0076,-0.0086,-0.0086,-0.0087,0,0,0,0,0,-0.029,-0.0304,-0.0297,-0.0295,-0.0277,-0.0263,-0.0259,-0.0237,-0.0229,-0.0232,-0.0208,-0.0188,-0.0139,-0.0142,-0.0135,-0.0119,-0.0076,-0.0076,-0.0076,-0.0085,-0.0086,-0.0087,0,0,0,0,0,0,-0.0313,-0.0302,-0.0293,-0.0303,-0.0287,-0.0258,-0.0258,-0.0243,-0.0227,-0.0226,-0.0191,-0.0183,-0.0168,-0.0145,-0.0149,-0.0106,-0.0103,-0.0101,-0.0112,-0.0113,-0.0113,-0.0093,-0.0121,0,0,0,0,0,-0.0322,-0.0333,-0.0311,-0.0319,-0.0313,-0.0287,-0.0279,-0.0266,-0.0246,-0.0239,-0.0214,-0.0186,-0.0162,-0.014,-0.0126,-0.0097,-0.0057,-0.0082,-0.0083,-0.0083,-0.0062,0.0017,0.0027,-0.0076,-0.0076,-0.0076,0,0,-0.0334,-0.0328,-0.0334,-0.0325,-0.0311,-0.0301,-0.0283,-0.0277,-0.0262,-0.0234,-0.0214,-0.0198,-0.0161,-0.0135,-0.0124,-0.011,-0.0042,-0.0083,-0.0084,-0.0062,0.0018,0.0029,0.0038,-0.0076,-0.0076,-0.0076,0,0,-0.0356,-0.0357,-0.0369,-0.0357,-0.034,-0.0321,-0.0322,-0.0298,-0.0282,-0.0265,-0.0239,-0.0204,-0.0181,-0.0131,-0.0106,-0.0098,-0.0062,-0.0108,-0.0072,0.0004,0.0014,0.0023,0.0054,0.0066,-0.009,-0.009,-0.009,0,-0.0368,-0.0377,-0.0368,-0.0369,-0.0357,-0.0332,-0.0329,-0.0308,-0.028,-0.0253,-0.0265,-0.0192,-0.0167,-0.0094,-0.0094,-0.0094,-0.0066,-0.0073,0.0006,0.0016,0.0026,0.0056,0.0069,-0.009,-0.009,-0.009,-0.009,0,-0.0389,-0.0394,-0.0399,-0.0389,-0.0378,-0.0375,-0.0341,-0.0325,-0.0307,-0.0271,-0.022,-0.018,-0.0124,-0.0116,-0.0102,-0.0018,-0.0029,-0.0018,0.0012,0.0036,0.0064,0.0079,-0.0091,-0.0091,-0.0091,-0.0091,0,0,-0.0421,-0.0415,-0.0418,-0.041,-0.0388,-0.0379,-0.0352,-0.0306,-0.0269,-0.0239,-0.0176,-0.0128,-0.0096,-0.0065,-0.0034,0.004,0.0116,0.0041,0.0045,0.0078,0.0253,0.018,0.0189,0.0141,0.0144,0.0146,0.0234,0,-0.0436,-0.0445,-0.0434,-0.0428,-0.0423,-0.0388,-0.036,-0.0315,-0.0269,-0.0206,-0.0133,-0.0081,-0.0078,-0.0049,0.0026,0.0097,0.0159,0.009,0.022,0.0224,0.0163,0.0206,0.0156,0.0245,0.0248,0.0251,0.0253,0,-0.0457,-0.0456,-0.0464,-0.0434,-0.0429,-0.0423,-0.0361,-0.0332,-0.0233,-0.0193,-0.0109,-0.0057,0.0055,0.0045,0.0201,0.0153,0.0202,0.0253,0.0258,0.0213,0.018,0.0224,0.0279,0.0277,0.0275,0.0274,0.0272,0,-0.0482,-0.0474,-0.0481,-0.0475,-0.0442,-0.0432,-0.041,-0.0331,-0.0292,-0.0177,-0.013,0.0,0.0064,0.0169,0.0243,0.0239,0.0397,0.0408,0.0389,0.0382,0.0426,0.0416,0.0523,0.0523,0.0523,0.0523,0.0523,0,-0.0497,-0.0501,-0.0499,-0.0503,-0.0495,-0.0462,-0.0434,-0.0382,-0.0298,-0.025,-0.0131,-0.0072,0.0101,0.0197,0.0269,0.0356,0.0416,0.041,0.0417,0.0411,0.0399,0.0434,0.0423,0.0526,0.0525,0.0525,0.0524,0,-0.052,-0.0524,-0.0527,-0.0512,-0.0513,-0.0508,-0.0476,-0.0447,-0.0362,-0.0292,-0.0257,-0.0098,0.0026,0.0162,0.0331,0.0375,0.0473,0.0478,0.0431,0.043,0.0405,0.0392,0.0513,0.0512,0.0511,0.051,0.0509,0,-0.0529,-0.0541,-0.0551,-0.0566,-0.0568,-0.0563,-0.0563,-0.0493,-0.0459,-0.0334,-0.0302,-0.0153,-0.0056,0.0127,0.027,0.0425,0.0427,0.0478,0.0486,0.0418,0.0413,0.0402,0.0391,0.0507,0.0506,0.0506,0.0506,0,-0.0538,-0.0556,-0.0561,-0.0603,-0.0622,-0.063,-0.0622,-0.0599,-0.052,-0.0438,-0.0345,-0.0221,-0.008,0.0089,0.0201,0.0304,0.0462,0.0466,0.047,0.0479,0.0412,0.0405,0.0396,0.0501,0.0502,0.0503,0.0503,0,-0.0549,-0.0559,-0.0592,-0.0622,-0.0662,-0.0694,-0.0678,-0.0645,-0.06,-0.0458,-0.0447,-0.0275,-0.0153,0.0022,0.0116,0.0227,0.0271,0.0305,0.0319,0.0325,0.0239,0.0124,0.0149,0,0,0,0,0,-0.0546,-0.0572,-0.061,-0.0652,-0.0704,-0.0729,-0.0716,-0.0689,-0.0615,-0.0569,-0.0502,-0.0387,-0.0192,-0.0088,0.0011,0.01,0.0288,0.0219,0.0333,0.0478,0.0483,0.0406,0,0,0,0,0,0,-0.0547,-0.0584,-0.0608,-0.0686,-0.0731,-0.0781,-0.0781,-0.0733,-0.0689,-0.0599,-0.0496,-0.0393,-0.0201,-0.0267,-0.0003,0.004,0.0119,0.0332,0.0334,0.0475,0.0479,0.0483,0.0406,0,0,0,0,0]}]]